Location: Ward Pound Ridge Reservation
(41.2500°N, 73.6000°W)
Time: 23:47:44
(UTC-05:00)

Vanguard 2 Rocket - All Passes

Search period start: 11 December 2017 00:00
Search period end: 21 December 2017 00:00
Orbit: 555 x 3326 km, 32.9° (Epoch: 11 December)

Date Brightness Start Highest point End Pass type
(mag) Time Alt. Az. Time Alt. Az. Time Alt. Az.
11 Dec - 01:00:26 10° W 01:19:10 49° SSW 01:35:08 10° SE visible
11 Dec - 03:21:09 10° W 03:33:55 22° SW 03:44:23 10° S visible
11 Dec - 17:20:26 10° S 17:28:58 23° SE 17:40:38 10° E visible
11 Dec - 19:29:50 10° SW 19:42:51 52° SSE 20:01:33 10° E visible
11 Dec - 21:43:09 10° WSW 21:59:47 66° S 22:19:45 10° ESE visible
11 Dec - 23:58:56 10° W 00:17:40 57° SSW 00:35:23 10° SE visible
12 Dec - 02:17:35 10° W 02:33:37 31° SW 02:46:54 10° SSE visible
12 Dec - 16:24:53 10° SSE 16:29:40 13° SE 16:35:23 10° ESE daylight
12 Dec - 18:31:07 10° SSW 18:42:16 42° SSE 18:58:59 10° E visible
12 Dec - 20:43:14 10° WSW 20:58:05 64° S 21:18:04 10° E visible
12 Dec - 22:58:00 10° W 23:15:52 62° SSW 23:34:58 10° ESE visible
13 Dec - 01:15:09 10° W 01:32:48 40° SW 01:48:19 10° SSE visible
13 Dec - 03:38:51 10° WSW 03:47:01 14° SW 03:54:19 10° SSW visible
13 Dec - 17:33:04 10° SSW 17:42:17 31° SE 17:56:00 10° E visible
13 Dec - 19:43:48 10° WSW 19:56:47 58° SSE 20:15:57 10° E visible
13 Dec - 21:57:32 10° W 22:14:00 65° S 22:33:56 10° ESE visible
14 Dec - 00:13:31 10° W 00:31:30 49° SSW 00:48:54 10° SE visible
14 Dec - 02:33:25 10° W 02:46:52 23° SW 02:58:39 10° S visible
14 Dec - 16:35:55 10° S 16:42:51 21° SE 16:52:23 10° E visible
14 Dec - 18:44:51 10° SW 18:56:02 50° SSE 19:13:30 10° E visible
14 Dec - 20:57:34 10° WSW 21:12:17 65° S 21:32:20 10° ESE visible
14 Dec - 23:12:30 10° W 23:29:54 56° SSW 23:48:45 10° SE visible
15 Dec - 01:30:16 10° W 01:46:15 31° SW 02:00:51 10° SSE visible
15 Dec - 15:41:38 10° SE 15:43:50 11° SE 15:46:17 10° ESE daylight
15 Dec - 17:46:25 10° SSW 17:55:51 40° SSE 18:10:47 10° E visible
15 Dec - 19:58:01 10° WSW 20:10:54 63° S 20:30:17 10° E visible
15 Dec - 22:12:00 10° W 22:28:10 61° SSW 22:47:55 10° ESE visible
16 Dec - 00:28:17 10° W 00:45:12 40° SSW 01:01:56 10° SSE visible
16 Dec - 02:51:08 10° WSW 03:00:04 15° SW 03:08:22 10° SSW visible
16 Dec - 16:48:35 10° SSW 16:56:14 28° SE 17:07:50 10° E visible
16 Dec - 18:58:54 10° WSW 19:10:01 57° SSE 19:27:53 10° E visible
16 Dec - 21:11:59 10° W 21:26:31 64° S 21:46:28 10° ESE visible
16 Dec - 23:27:07 10° W 23:43:49 48° SSW 00:02:08 10° SE visible
17 Dec - 01:46:11 10° W 01:59:37 23° SW 02:12:20 10° S visible
17 Dec - 15:51:45 10° S 15:57:07 18° SE 16:04:18 10° E daylight
17 Dec - 18:00:12 10° SW 18:09:40 48° SSE 18:25:19 10° E visible
17 Dec - 20:12:24 10° WSW 20:25:09 64° S 20:44:31 10° ESE visible
17 Dec - 22:26:33 10° W 22:42:16 54° SSW 23:01:35 10° SE visible
18 Dec - 00:43:30 10° W 00:58:47 31° SW 01:14:13 10° SSE visible
18 Dec - 17:01:59 10° SSW 17:09:52 37° SSE 17:22:40 10° E visible
18 Dec - 19:13:10 10° WSW 19:24:11 61° S 19:42:11 10° E visible
18 Dec - 21:26:30 10° W 21:40:45 59° SSW 22:00:21 10° ESE visible
18 Dec - 23:41:59 10° W 23:57:37 39° SSW 00:14:58 10° SSE visible
19 Dec - 02:04:05 10° WSW 02:12:58 15° SW 02:21:40 10° SSW visible
19 Dec - 16:04:22 10° SSW 16:10:35 25° SE 16:19:54 10° E daylight
19 Dec - 18:14:19 10° WSW 18:23:43 54° SSE 18:39:42 10° E visible
19 Dec - 20:26:51 10° W 20:39:26 61° S 20:58:34 10° ESE visible
19 Dec - 22:41:14 10° W 22:56:17 46° SSW 23:14:49 10° SE visible
20 Dec - 00:59:34 10° W 01:12:18 22° SW 01:25:23 10° S visible
20 Dec - 15:07:55 10° SSE 15:11:42 14° SE 15:16:28 10° ESE daylight
20 Dec - 17:15:50 10° SW 17:23:46 45° SSE 17:37:12 10° E visible
20 Dec - 19:27:35 10° WSW 19:38:28 61° S 19:56:23 10° ESE visible
20 Dec - 21:41:06 10° W 21:54:55 52° SSW 22:13:55 10° SE visible
